カタログに戻る

FENGYUN 1C DEB

運用中SSO
NORAD 38143·DEBRIS·🇨🇳 China

打ち上げ May 10, 1999 から Taiyuan Satellite Launch Center

Loading…

次のパス (今後24時間)

TLE

最新Source: Space-Track

元期: Sep 13, 2026, 09:15 UTC

1 38143U 99025EQQ 26256.38568397  .00000884  00000-0  56474-3 0  9993
2 38143  98.9971 315.5014 0055554 176.6372 183.5180 14.05369407641409

AllMySatでFENGYUN 1C DEBをリアルタイム追跡

Download on the App Store